Flag for Hong Kong Weather past 2 weeks in Hong Kong, Hong Kong

Now
66 °F

Passing clouds.


Feels Like: 66 °F
Forecast: 68 / 74 °F
Wind: 28 mph from East

Location: National Airport

Current Time: Feb 28, 2015 at 7:01:17 AM

Latest Report: Feb 28, 2015 at 6:30 AM


Visibility: N/A

Pressure: 29.98 "Hg

Humidity: 83%

Dew point: 61 °F

Location of Hong KongLocation

Historic Weather in Hong Kong — Graph

°F

Hong Kong temperature yesterday

Maximum temperature yesterday: 73 °F (at 12:00 AM)
Minimum temperature yesterday: 68 °F (at 6:30 AM)
Average temperature yesterday: 70 °F

Past Weeks' High & Low Weather Summary

 TemperatureHumidityPressure
High82 °F (Feb 26, 1:30 PM)94% (Feb 17, 5:00 AM)30.15 "Hg (Feb 17, 5:00 AM)
Low61 °F (Feb 13, 6:00 AM)20% (Feb 13, 6:30 PM)29.86 "Hg (Feb 24, 3:00 PM)
Average69 °F76%30.00 "Hg
* Reported Feb 13 6:00 AM — Feb 28 6:00 AM, Hong Kong, Weather by CustomWeather, © 2015

Note: Actual official high and low records may vary slightly from our data, if they occured in-between our weather recording intervals... More about our weather records

Advertising

Hong Kong weather history for previous 24 hours

 ConditionsComfort  
Time TempWeatherWind HumidityBarometerVisibility
6:00 AM
Sat, Feb 28
66 °FPassing clouds.26 mph83%29.98 "HgN/A
5:30 AM66 °FPassing clouds.28 mph83%29.98 "HgN/A
5:00 AM66 °FPassing clouds.29 mph83%29.95 "HgN/A
4:30 AM66 °FPassing clouds.28 mph83%29.95 "HgN/A
4:00 AM66 °FPassing clouds.26 mph83%29.95 "HgN/A
3:30 AM66 °FPassing clouds.25 mph83%29.95 "HgN/A
3:00 AM66 °FPassing clouds.24 mph83%29.98 "Hg6 mi
2:30 AM66 °FPassing clouds.22 mph88%29.98 "HgN/A
2:00 AM66 °FPassing clouds.23 mph88%29.98 "HgN/A
1:30 AM66 °FPassing clouds.23 mph88%29.98 "HgN/A
1:00 AM66 °FPassing clouds.23 mph88%30.01 "HgN/A
12:30 AM68 °FPassing clouds.22 mph83%30.01 "HgN/A
12:00 AM68 °FPassing clouds.20 mph88%30.01 "Hg6 mi
11:30 PM
Fri, Feb 27
68 °FPassing clouds.15 mph88%30.01 "Hg5 mi
11:00 PM68 °FPassing clouds.13 mph88%30.01 "Hg5 mi
10:30 PM68 °FPassing clouds.9 mph88%30.01 "Hg5 mi
10:00 PM68 °FPassing clouds.12 mph88%30.01 "Hg5 mi
9:30 PM68 °FPassing clouds.14 mph88%29.98 "Hg5 mi
9:00 PM68 °FPassing clouds.13 mph88%29.98 "Hg6 mi
8:30 PM68 °FPassing clouds.14 mph88%29.98 "Hg6 mi
8:00 PM68 °FPassing clouds.15 mph88%29.95 "Hg6 mi
7:30 PM68 °FPassing clouds.16 mph88%29.95 "Hg6 mi
7:00 PM68 °FPassing clouds.15 mph83%29.95 "HgN/A
6:30 PM68 °FPassing clouds.15 mph83%29.95 "HgN/A
6:00 PM68 °FPassing clouds.17 mph83%29.95 "HgN/A
5:30 PM68 °FPassing clouds.15 mph83%29.95 "HgN/A
5:00 PM70 °FPassing clouds.21 mph78%29.95 "HgN/A
4:30 PM70 °FScattered clouds.21 mph78%29.95 "HgN/A
4:00 PM70 °FScattered clouds.22 mph78%29.95 "HgN/A
3:30 PM70 °FScattered clouds.21 mph83%29.95 "HgN/A
3:00 PM70 °FScattered clouds.17 mph83%29.95 "HgN/A
2:30 PM68 °FScattered clouds.14 mph88%29.95 "HgN/A
2:00 PM68 °FScattered clouds.16 mph88%29.98 "Hg6 mi
1:30 PM70 °FScattered clouds.14 mph83%29.98 "Hg6 mi
1:00 PM70 °FScattered clouds.14 mph83%29.98 "HgN/A
12:30 PM70 °FScattered clouds.14 mph83%30.01 "HgN/A
11:30 AM70 °FScattered clouds.17 mph83%30.01 "Hg6 mi
11:00 AM70 °FScattered clouds.16 mph83%30.04 "Hg5 mi
10:30 AM68 °FScattered clouds.16 mph88%30.04 "Hg5 mi
10:00 AM68 °FScattered clouds.17 mph88%30.04 "Hg5 mi
9:30 AM68 °FScattered clouds.15 mph88%30.04 "Hg5 mi
9:00 AM68 °FScattered clouds.18 mph88%30.01 "Hg6 mi
8:30 AM68 °FScattered clouds.16 mph88%30.01 "HgN/A
8:00 AM68 °FScattered clouds.14 mph88%30.01 "HgN/A
7:30 AM68 °FScattered clouds.18 mph88%30.01 "HgN/A
7:00 AM68 °FScattered clouds.16 mph94%29.98 "Hg4 mi
Weather by CustomWeather, © 2015

See weather overviewHow to use our weather pages